This demonstration page uses our WeatherBlox Daily Observations layout. Learn more.

Left ArrowRight Arrow

Hourly Observations for April 4, 2015

Temp ( °F °C ) Dew Point ( °F °C ) Humidity (%) Winds ( mph kmh ) Pressure ( in mb ) Visibility ( mi km ) Precip ( " mm )
12:51 am 00:51 Clear 53 11.7 21 -6.1 28 28 N N/A 29.94 1014 10 16 N/A
1:51 am 01:51 Clear 50 10 22 -5.6 33 33 E 3 6 29.94 1014 10 16 N/A
2:51 am 02:51 Clear 48 8.9 22 -5.6 36 36 E 3 6 29.94 1014 10 16 N/A
3:51 am 03:51 Clear 55 12.8 21 -6.1 26 26 ESE 6 9 29.92 1013 10 16 N/A
4:51 am 04:51 Clear 56 13.3 23 -5 28 28 ESE 10 17 29.92 1013 10 16 N/A
5:51 am 05:51 Clear 55 12.8 24 -4.4 30 30 SE 12 19 29.94 1014 10 16 N/A
6:51 am 06:51 Sunny 58 14.4 26 -3.3 29 29 SE 10 17 29.97 1015 10 16 N/A
7:51 am 07:51 Sunny 59 15 30 -1.1 33 33 SSE 10 17 29.99 1016 10 16 N/A
8:51 am 08:51 Sunny 64 17.8 31 -0.6 29 29 SSE 9 15 29.99 1016 10 16 N/A
9:51 am 09:51 Sunny 68 20 33 0.6 27 27 SSE 10 17 29.99 1016 10 16 N/A
10:51 am 10:51 Sunny 73 22.8 33 0.6 23 23 SSE 13 20 29.97 1015 10 16 N/A
11:51 am 11:51 Sunny 76 24.4 33 0.6 21 21 ESE 14 22 29.93 1014 10 16 N/A
12:51 pm 12:51 Sunny 77 25 32 undefined 19 19 SSE 12 19 29.90 1013 10 16 N/A
1:51 pm 13:51 Sunny 79 26.1 33 0.6 19 19 VRB 3 6 29.85 1011 10 16 N/A
2:51 pm 14:51 Sunny 82 27.8 32 undefined 16 16 E 7 11 29.81 1010 10 16 N/A
3:51 pm 15:51 Sunny 81 27.2 31 -0.6 16 16 N N/A 29.77 1008 10 16 N/A
4:51 pm 16:51 Sunny 82 27.8 31 -0.6 16 16 E 5 7 29.75 1007 10 16 N/A
5:51 pm 17:51 Sunny 81 27.2 31 -0.6 16 16 N 3 6 29.74 1007 10 16 N/A
6:51 pm 18:51 Clear 75 23.9 32 undefined 21 21 NW 6 9 29.74 1007 10 16 N/A
7:51 pm 19:51 Clear 72 22.2 30 -1.1 21 21 NW 7 11 29.76 1008 10 16 N/A
8:51 pm 20:51 Clear 74 23.3 20 -6.7 13 13 WNW 8 13 29.76 1008 10 16 N/A
9:51 pm 21:51 Clear 71 21.7 20 -6.7 14 14 WNW 7 11 29.76 1008 10 16 N/A
10:51 pm 22:51 Clear 71 21.7 19 -7.2 14 14 NNW 9 15 29.76 1008 10 16 N/A
11:51 pm 23:51 Clear 71 21.7 18 -7.8 13 13 NW 8 13 29.75 1008 10 16 N/A

Powered by AerisWeather